Location: Bodham
(52.9000°N, 1.1667°E)
Time: 14:05:31
(UTC+00:00)

Cosmos 2112 Rocket - Pass Details

Date: 21 October 2025
Orbit: 753 x 782 km, 74.0° (Epoch: 13 November)

Event Time Altitude Azimuth Distance (km) Brightness Sun altitude
Rises 04:29:35 0° 334° (NNW) 3,246 7.1 -19.2°
Reaches altitude 10° 04:31:59 10° 336° (NNW) 2,311 6.3 -18.8°
Maximum altitude 04:37:14 80° 63° (ENE) 777 4.0 -18.0°
Drops below altitude 10° 04:42:25 10° 151° (SSE) 2,280 6.7 -17.2°
Sets 04:44:46 0° 153° (SSE) 3,198 7.5 -16.9°
